JST400 YSSY-YBCG

Flight info

Callsign JST400
Flight time N/A
Altitude 37000
Route TESAT H252 OLSEM Y193 BANDA Y43 GREAV DCT GOMOL
Aircraft A320/M-SDE3FGHIRWY/LB1

Departure

Time 2026-05-05 17:36
Airport Sydney Kingsford Smith International Airport (YSSY)

Arrival

Time N/A
Airport Gold Coast Airport (YBCG)
Time Latitude Longitude Altitude Speed Heading
2026-05-05 17:23 -33.93513 151.17686 30 ft 0 kts 101°
2026-05-05 17:27 -33.93508 151.17657 30 ft 4 kts 101°
2026-05-05 17:27 -33.93503 151.17625 30 ft 4 kts 106°
2026-05-05 17:28 -33.93493 151.17596 30 ft 4 kts 131°
2026-05-05 17:28 -33.93480 151.17584 30 ft 0 kts 168°
2026-05-05 17:31 -33.93486 151.17586 30 ft 3 kts 168°
2026-05-05 17:31 -33.93529 151.17597 30 ft 9 kts 168°
2026-05-05 17:31 -33.93611 151.17616 30 ft 13 kts 177°
2026-05-05 17:32 -33.93697 151.17562 29 ft 15 kts 185°
2026-05-05 17:32 -33.93814 151.17588 29 ft 19 kts 168°
2026-05-05 17:32 -33.93956 151.17625 29 ft 23 kts 167°
2026-05-05 17:32 -33.94128 151.17672 29 ft 26 kts 166°
2026-05-05 17:33 -33.94311 151.17728 30 ft 28 kts 165°
2026-05-05 17:33 -33.94506 151.17788 30 ft 30 kts 166°
2026-05-05 17:33 -33.94714 151.17843 30 ft 31 kts 168°
2026-05-05 17:33 -33.94933 151.17899 30 ft 33 kts 168°
2026-05-05 17:34 -33.95083 151.17941 30 ft 15 kts 158°
2026-05-05 17:34 -33.95109 151.18052 30 ft 18 kts 78°
2026-05-05 17:34 -33.95079 151.18216 30 ft 22 kts 78°
2026-05-05 17:34 -33.95046 151.18404 30 ft 24 kts 77°
2026-05-05 17:35 -33.95008 151.18610 30 ft 26 kts 77°
2026-05-05 17:35 -33.94986 151.18799 25 ft 16 kts 106°
2026-05-05 17:35 -33.95137 151.18874 27 ft 54 kts 168°
2026-05-05 17:35 -33.95797 151.19045 27 ft 136 kts 168°
2026-05-05 17:36 -33.96924 151.19334 162 ft 185 kts 169°
2026-05-05 17:36 -33.98175 151.19782 1025 ft 191 kts 149°
2026-05-05 17:36 -33.99036 151.21011 1964 ft 197 kts 121°
2026-05-05 17:36 -33.99762 151.22502 2323 ft 216 kts 121°
2026-05-05 17:37 -34.00586 151.24112 2833 ft 231 kts 125°
2026-05-05 17:37 -34.01741 151.25511 3502 ft 246 kts 139°
2026-05-05 17:37 -34.03091 151.26855 4229 ft 255 kts 140°
2026-05-05 17:37 -34.04485 151.28208 5103 ft 260 kts 140°
2026-05-05 17:38 -34.05909 151.29581 5953 ft 264 kts 140°
2026-05-05 17:38 -34.07358 151.30982 6772 ft 269 kts 140°
2026-05-05 17:38 -34.08834 151.32413 7540 ft 274 kts 140°
2026-05-05 17:38 -34.10315 151.33898 8282 ft 280 kts 135°
2026-05-05 17:39 -34.11380 151.35882 8987 ft 287 kts 109°
2026-05-05 17:39 -34.11630 151.38282 9682 ft 294 kts 82°
2026-05-05 17:39 -34.10990 151.40590 10291 ft 301 kts 57°
2026-05-05 17:39 -34.09632 151.42585 10689 ft 313 kts 46°
2026-05-05 17:40 -34.08141 151.44536 11330 ft 319 kts 45°
2026-05-05 17:40 -34.06443 151.46262 11993 ft 321 kts 31°
2026-05-05 17:40 -34.04437 151.47526 12403 ft 334 kts 19°
2026-05-05 17:40 -34.02139 151.48339 12555 ft 354 kts 13°
2026-05-05 17:41 -33.99724 151.49113 13000 ft 363 kts 13°
2026-05-05 17:41 -33.97263 151.49911 13621 ft 368 kts 13°
2026-05-05 17:41 -33.94775 151.50721 14214 ft 372 kts 13°
2026-05-05 17:41 -33.92263 151.51541 14788 ft 375 kts 13°
2026-05-05 17:42 -33.89737 151.52368 15339 ft 378 kts 13°
2026-05-05 17:42 -33.87188 151.53201 15887 ft 381 kts 13°
2026-05-05 17:42 -33.84644 151.54028 16424 ft 384 kts 13°
2026-05-05 17:42 -33.82057 151.54873 16966 ft 387 kts 13°
2026-05-05 17:43 -33.79442 151.55726 17526 ft 390 kts 13°
2026-05-05 17:43 -33.76811 151.56587 18088 ft 394 kts 13°
2026-05-05 17:43 -33.74155 151.57456 18596 ft 397 kts 13°
2026-05-05 17:43 -33.71476 151.58330 19074 ft 400 kts 13°
2026-05-05 17:44 -33.68777 151.59210 19589 ft 403 kts 13°
2026-05-05 17:44 -33.66078 151.60144 20112 ft 406 kts 17°
2026-05-05 17:44 -33.63487 151.61552 20621 ft 412 kts 27°
2026-05-05 17:44 -33.61063 151.63411 21113 ft 415 kts 31°
2026-05-05 17:45 -33.58644 151.65326 21594 ft 417 kts 30°
2026-05-05 17:45 -33.56214 151.67240 22056 ft 419 kts 30°
2026-05-05 17:45 -33.53764 151.69163 22499 ft 422 kts 30°
2026-05-05 17:45 -33.51296 151.71076 22958 ft 423 kts 27°
2026-05-05 17:46 -33.48676 151.72655 23404 ft 421 kts 18°
2026-05-05 17:46 -33.45902 151.73724 23827 ft 419 kts 11°
2026-05-05 17:46 -33.43078 151.74628 24203 ft 421 kts 11°
2026-05-05 17:46 -33.40239 151.75534 24570 ft 423 kts 11°
2026-05-05 17:47 -33.37397 151.76444 24934 ft 425 kts 11°
2026-05-05 17:47 -33.34574 151.77353 25288 ft 426 kts 11°
2026-05-05 17:47 -33.31701 151.78280 25639 ft 428 kts 11°
2026-05-05 17:47 -33.28820 151.79213 26002 ft 429 kts 11°
2026-05-05 17:48 -33.25930 151.80150 26368 ft 431 kts 11°
2026-05-05 17:48 -33.23027 151.81093 26723 ft 433 kts 11°
2026-05-05 17:48 -33.20111 151.82039 27085 ft 435 kts 11°
2026-05-05 17:48 -33.17182 151.82981 27438 ft 437 kts 10°
2026-05-05 17:49 -33.14235 151.83930 27796 ft 439 kts 10°
2026-05-05 17:49 -33.11277 151.84883 28126 ft 441 kts 10°
2026-05-05 17:49 -33.08311 151.85834 28474 ft 443 kts 10°
2026-05-05 17:49 -33.05336 151.86789 28947 ft 441 kts 10°
2026-05-05 17:50 -33.02380 151.87739 29456 ft 439 kts 10°
2026-05-05 17:50 -32.99433 151.88685 29959 ft 438 kts 10°
2026-05-05 17:50 -32.96491 151.89628 30425 ft 437 kts
2026-05-05 17:50 -32.93562 151.90567 30843 ft 435 kts
2026-05-05 17:51 -32.90640 151.91505 31256 ft 434 kts
2026-05-05 17:51 -32.87730 151.92439 31661 ft 433 kts
2026-05-05 17:51 -32.84822 151.93370 32088 ft 431 kts
2026-05-05 17:51 -32.81927 151.94296 32527 ft 429 kts
2026-05-05 17:52 -32.79046 151.95214 32983 ft 428 kts
2026-05-05 17:52 -32.76177 151.96128 33427 ft 426 kts
2026-05-05 17:52 -32.73353 151.97025 33859 ft 425 kts
2026-05-05 17:52 -32.70502 151.97932 34272 ft 424 kts
2026-05-05 17:53 -32.67660 151.98838 34611 ft 423 kts
2026-05-05 17:53 -32.64815 151.99746 34930 ft 423 kts
2026-05-05 17:53 -32.61969 152.00648 35239 ft 423 kts
2026-05-05 17:53 -32.59125 152.01550 35528 ft 423 kts
2026-05-05 17:54 -32.56280 152.02452 35820 ft 423 kts
2026-05-05 17:54 -32.53437 152.03354 36109 ft 423 kts
2026-05-05 17:54 -32.50596 152.04257 36388 ft 423 kts
2026-05-05 17:54 -32.47752 152.05159 36650 ft 423 kts
2026-05-05 17:55 -32.44940 152.06049 36897 ft 423 kts
2026-05-05 17:55 -32.42099 152.06946 37113 ft 423 kts
2026-05-05 17:55 -32.39243 152.07843 37176 ft 426 kts
2026-05-05 17:56 -32.33458 152.09659 37187 ft 432 kts
2026-05-05 17:56 -32.27645 152.11507 37192 ft 433 kts
2026-05-05 17:57 -32.21821 152.13349 37174 ft 432 kts
2026-05-05 17:57 -32.16010 152.15178 37193 ft 432 kts
2026-05-05 17:58 -32.10198 152.16999 37187 ft 432 kts
2026-05-05 17:58 -32.04380 152.18819 37192 ft 432 kts
2026-05-05 17:59 -31.98569 152.20648 37180 ft 433 kts
2026-05-05 17:59 -31.92752 152.22475 37184 ft 433 kts